Weather in Yevsino

Russia / Novosibirsk Oblast     54°24′59″N   83°19′23″E
temp.,
°C
wind,
m/s
gust,
m/s
humid.,
%
clouds,
%
prec.,
mm/h
press.,
hPa
HPBL,
m
27 february, sat
sat2701:00−24sw51192100 0.1 1036613
04:00−24sw41095100 0.1 1037542
07:00−24sw4996100 0.3 1038485
10:00−24sw5994100 0.1 1037502
13:00−22sw5891100 0.2 1038595
16:00−21sw4789100 0.1 1038627
19:00−25sw349699 0.1 103860
22:00−28sw349428 0.0 103939
28 february, sun
sun2801:00−29ssw349615 0.0 104036
04:00−29s33968 0.0 103931
07:00−29sse34979 0.0 103958
10:00−27sse479528 0.0 1038175
13:00−21sse589434 0.0 1035313
16:00−15sse598990 0.0 1032515
19:00−14sse499495 0.1 1029330
22:00−13se51094100 0.4 1026340
1 march, mon
mon101:00−11sse61293100 0.7 1022435
04:00−10sse61293100 0.4 1018534
07:00−8sse71293100 1.3 1014617
10:00−6s71394100 1.5 1011807
13:00−2ssw91690100 2.1 1009814
16:000ssw101688100 0.4 1008891
19:000ssw81497100 1.9 1006740
22:000sw71391100 0.9 1006794
2 march, tue
tue201:00−3wsw61291100 1.0 1008610
04:00−4sw71294100 0.4 1010687
07:00−11wsw61292100 0.9 1013494
10:00−14wsw6119299 0.1 1016422
13:00−13wsw589199 0.3 1018467
16:00−12wsw4690100 0.1 1018569
19:00−14sw2296100 0.1 101829
22:00−17s1298100 0.1 101820
3 march, wed
wed301:00−17sse1195100 0.1 101720
04:00−16ese1297100 0.3 101521
07:00−16e1297100 0.6 101520
10:00−13ne0094100 0.5 1015103
13:00−11w2391100 0.8 1016364
16:00−11w3590100 0.3 1018497
19:00−13w349594 0.4 1020114
22:00−16sw349590 0.1 102353